Showing default

IRIDIUM 124, 42810

Orbit data source: Space-Track

IRIDIUM 124, 42810 is a payload satellite owned by Iridium (US) in LEO that was launched on Sun, 25 Jun 2017 UTC via an FALCON 9 launch vehicle from the Air Force Western Test Range (AFWTR). Payload-class satellites include a variety of spacecraft equipped with specific instruments for various scientific and technological missions. These include communications satellites like Starlink; space stations such as the ISS; scientific satellites like the Hubble; Earth observation satellites from companies like Planet Labs, Umbra, and HawkEye 360; GPS; miniature CubeSats for education and research; and military/defense satellites.

Loading next visibility...
Identifier
42810, 2017-039H
Orbit
LEO
Country
Flag of USUS
Related business
Manufacturer
OATK SSG Gilbert
Mission
Operational Commercial Communications
Bus & Motor
ELITEBUS, Unknown motor
Mass
860 kg wet, 700 kg dry
Launch date (UTC)
2017-06-25 (8 years ago)
Launch vehicle
FALCON 9
Launch site
Air Force Western Test Range (AFWTR)
Object type
Payload
Rocket body
Debris
Shape & HBR
Trap Box + 2 Pan, 4.8 m
Radar Cross Section
10.154 m², Large (>1 m²)

Expand to show TLE details & history
Last TLE update: 16 hours ago

TLE from 16 hours ago
0 IRIDIUM 124
1 42810U 17039H   25296.70356294  .00000575  00000-0  16500-3 0  9997
2 42810  86.4535  29.2148 0002016  89.4869 270.6563 14.43278063441003
Epoch: 2025-10-23T16:53Z
TLE epoch observation values (Epoch: 2025-10-23T16:53:07.838Z)
Latitude
0.00001°
Longitude
103.57314°
Altitude
750.737 km
Speed
7.479 km/s
True Right ascension
01h 56m 51s
True Declination
0° 00' 00"
Sunlit
Object was in full shadow at epoch
Visualization orbit readout
Latitude
Unknown
Longitude
Unknown
Altitude
Unknown
Speed
Unknown
Apparent Right ascension
Unknown
Apparent Declination
Unknown
Sunlit
N/A
Visualization observer readout
Local Sidereal Time
04:15:39
Azimuth
Unknown
Elevation
Unknown
Doppler factor
Unknown
Orbital elements
Apogee altitude
746.075 km
Perigee altitude
743.203 km
Semi-major axis
7,122.776 km
Eccentricity
0.0002
Inclination
86.4535°
RAAN
29.2148°
Arg. of periapsis
89.4869°
True anomaly
270.6332°
Mean anomaly
270.6563°
Eccentric anomaly
270.64475°
Mean motion
3.61052 °/min
Orbital period
99.71 mins
BSTAR
0.000165
Loading maneuver chart data...
Computing Atmospheric mass density...
Loading historical data...
Loading historical data...
Loading historical data...
Loading historical data...
Loading historical data...
Loading historical data...
Loading historical data...

Documentation

Showing up to 5 results
|